Weather History for EBDT - August, 2013

Change the Weather History Date:

Sunday, August 25, 2013

  Actual Average Record
Temperature  
Mean Temperature 62 °F -  
Max Temperature 70 °F 67 °F 89 °F (1997)
Min Temperature 55 °F 57 °F 48 °F (2014)
Degree Days  
Heating Degree Days 2    
Growing Degree Days 12 (Base 50)    
Moisture  
Dew Point 57 °F    
Average Humidity 90    
Maximum Humidity 100    
Minimum Humidity 52    
Precipitation  
Precipitation 0.00 in - - ()
Sea Level Pressure  
Sea Level Pressure 29.88 in    
Wind  
Wind Speed 4 mph ()    
Max Wind Speed 7 mph    
Max Gust Speed -    
Visibility 3.7 miles    
Events      
Averages and records for this station are not official NWS values.
T = Trace of Precipitation, MM = Missing Value Source: Averaged Metar Reports

Daily Weather History Graph

Daily Weather History Graph

Search for Another Location

Airport or City:

Trip Planner

Search our weather history database for the weather conditions in past years. The results will help you decide how hot, cold, wet, or windy it might be!

Date:

Astronomy

Aug. 25, 2013 Rise Set
Actual Time 6:42 AM CEST 8:40 PM CEST
Civil Twilight 6:06 AM CEST 9:15 PM CEST
Nautical Twilight 5:22 AM CEST 9:59 PM CEST
Astronomical Twilight 4:32 AM CEST 10:48 PM CEST
Moon 10:20 PM CEST (8/25) 12:06 PM CEST (8/25)
Length of Visible Light 15h 08m
Length of Day
13h 57m
Waning Gibbous, 78% of the Moon is Illuminated
Aug 25
Waning Gibbous
Aug 28
Last Quarter
Sep 5
New
Sep 12
First Quarter
Sep 19
Full

Hourly Weather History & Observations

Time (CEST) Temp. Dew Point Humidity Pressure Visibility Wind Dir Wind Speed Gust Speed Precip Events Conditions
12:15 AM 59.0 °F 57.2 °F 94% 29.83 in 4.3 mi Variable 3.5 mph - N/A   Partly Cloudy
12:25 AM 57.2 °F 57.2 °F 100% 29.83 in 4.3 mi Variable 2.3 mph - N/A   Partly Cloudy
12:38 AM 57.2 °F 57.2 °F 100% 29.83 in - SE 3.5 mph - N/A   Partly Cloudy
12:39 AM 57.2 °F 57.2 °F 100% 29.83 in 0.9 mi SE 3.5 mph - N/A   Partly Cloudy
12:40 AM 57.2 °F 57.2 °F 100% 29.83 in 0.1 mi Variable 2.3 mph - N/A   Partly Cloudy
12:53 AM 57.2 °F 57.2 °F 100% 29.83 in 5.0 mi Variable 2.3 mph - N/A   Scattered Clouds
1:06 AM 57.2 °F 57.2 °F 100% 29.83 in 4.3 mi ESE 3.5 mph - N/A   Scattered Clouds
1:11 AM 57.2 °F 55.4 °F 94% 29.83 in 1.7 mi SE 4.6 mph - N/A   Scattered Clouds
1:12 AM 57.2 °F 55.4 °F 94% 29.83 in 0.7 mi SSE 4.6 mph - N/A   Scattered Clouds
1:25 AM 57.2 °F 55.4 °F 94% 29.83 in 1.6 mi SSE 3.5 mph - N/A   Partly Cloudy
2:00 AM 57 °F 56 °F 97% 29.84 in 2 mi SE 4.5 mph - -   Mist
2:22 AM 55.4 °F 55.4 °F 100% 29.83 in 0.7 mi SE 5.8 mph - N/A   Scattered Clouds
2:25 AM 57.2 °F 55.4 °F 94% 29.83 in 1.2 mi SE 5.8 mph - N/A   Scattered Clouds
3:25 AM 57.2 °F 55.4 °F 94% 29.83 in 1.6 mi SE 4.6 mph - N/A   Overcast
3:49 AM 57.2 °F 57.2 °F 100% 29.83 in - SE 4.6 mph - N/A   Overcast
4:08 AM 57.2 °F 55.4 °F 94% 29.83 in - SE 5.8 mph - N/A   Mostly Cloudy
4:19 AM 57.2 °F 55.4 °F 94% 29.83 in - SE 5.8 mph - N/A   Mostly Cloudy
4:25 AM 57.2 °F 55.4 °F 94% 29.83 in - ESE 6.9 mph - N/A   Scattered Clouds
4:43 AM 57.2 °F 55.4 °F 94% 29.83 in - SE 5.8 mph - N/A   Partly Cloudy
4:45 AM 55.4 °F 55.4 °F 100% 29.83 in 0.9 mi SE 4.6 mph - N/A   Unknown
4:57 AM 55.4 °F 55.4 °F 100% 29.83 in 2.5 mi SE 5.8 mph - N/A   Unknown
5:00 AM 56 °F 55 °F 96% 29.83 in 3 mi SE 4.5 mph - -   Mist
5:09 AM 55.4 °F 55.4 °F 100% 29.83 in 2.2 mi ESE 5.8 mph - N/A   Unknown
5:18 AM 55.4 °F 55.4 °F 100% 29.83 in - ESE 5.8 mph - N/A   Unknown
5:25 AM 55.4 °F 55.4 °F 100% 29.83 in - ESE 4.6 mph - N/A   Unknown
5:44 AM 55.4 °F 55.4 °F 100% 29.83 in 3.1 mi East 4.6 mph - N/A   Partly Cloudy
5:46 AM 55.4 °F 55.4 °F 100% 29.83 in - East 3.5 mph - N/A   Partly Cloudy
5:50 AM 55.4 °F 55.4 °F 100% 29.83 in 2.2 mi East 3.5 mph - N/A   Scattered Clouds
6:04 AM 55.4 °F 55.4 °F 100% 29.83 in - ENE 3.5 mph - N/A   Partly Cloudy
6:06 AM 55.4 °F 55.4 °F 100% 29.83 in - East 3.5 mph - N/A   Partly Cloudy
6:25 AM 55.4 °F 55.4 °F 100% 29.83 in 2.8 mi East 5.8 mph - N/A   Partly Cloudy
6:53 AM 55.4 °F 55.4 °F 100% 29.83 in - ESE 5.8 mph - N/A   Unknown
7:18 AM 55.4 °F 53.6 °F 94% 29.83 in 0.6 mi East 6.9 mph - N/A   Partly Cloudy
7:19 AM 55.4 °F 53.6 °F 94% 29.83 in - East 6.9 mph - N/A   Partly Cloudy
7:25 AM 55.4 °F 55.4 °F 100% 29.83 in - East 6.9 mph - N/A   Partly Cloudy
8:00 AM 56 °F 56 °F 98% 29.85 in 3 mi ESE 4.5 mph - -   Mist
8:04 AM 55.4 °F 55.4 °F 100% 29.83 in 1.6 mi East 5.8 mph - N/A   Scattered Clouds
8:07 AM 55.4 °F 55.4 °F 100% 29.83 in 0.8 mi East 4.6 mph - N/A   Scattered Clouds
8:20 AM 55.4 °F 53.6 °F 94% 29.83 in 1.1 mi Variable 1.2 mph - N/A   Partly Cloudy
8:25 AM 55.4 °F 55.4 °F 100% 29.83 in 2.5 mi Variable 2.3 mph - N/A   Partly Cloudy
8:48 AM 59.0 °F 57.2 °F 94% 29.86 in 3.1 mi Variable 2.3 mph - N/A   Unknown
9:19 AM 60.8 °F 57.2 °F 88% 29.86 in 6.2 mi ESE 4.6 mph - N/A   Unknown
9:25 AM 60.8 °F 57.2 °F 88% 29.86 in 6.2 mi ESE 4.6 mph - N/A   Unknown
10:25 AM 64.4 °F 57.2 °F 77% 29.86 in 6.2 mi SSE 6.9 mph - N/A   Partly Cloudy
11:00 AM 64 °F 56 °F 67% 29.88 in 22 mi South 6.7 mph - -   Scattered Clouds
11:13 AM 66.2 °F 55.4 °F 68% 29.89 in 6.2 mi SSE 4.6 mph - N/A   Scattered Clouds
11:25 AM 68.0 °F 55.4 °F 64% 29.89 in 6.2 mi South 4.6 mph - N/A   Scattered Clouds
12:04 PM 68.0 °F 55.4 °F 64% 29.89 in 6.2 mi SSE 4.6 mph - N/A   Mostly Cloudy
12:25 PM 66.2 °F 55.4 °F 68% 29.89 in 6.2 mi ESE 4.6 mph - N/A   Mostly Cloudy
1:25 PM 68.0 °F 53.6 °F 60% 29.89 in 6.2 mi Variable 1.2 mph - N/A   Mostly Cloudy
2:00 PM 68 °F 54 °F 52% 29.90 in 25 mi 2.2 mph - -   Clear
2:25 PM 68.0 °F 53.6 °F 60% 29.89 in 6.2 mi ENE 3.5 mph - N/A   Mostly Cloudy
3:25 PM 66.2 °F 53.6 °F 64% 29.92 in 6.2 mi NNE 6.9 mph - N/A   Mostly Cloudy
4:25 PM 66.2 °F 57.2 °F 73% 29.92 in 6.2 mi NNE 4.6 mph - N/A   Mostly Cloudy
5:00 PM 69 °F 57 °F 58% 29.92 in 18 mi North 4.5 mph - -   Clear
5:25 PM 68.0 °F 55.4 °F 64% 29.92 in 6.2 mi North 6.9 mph - N/A   Mostly Cloudy
6:25 PM 64.4 °F 59.0 °F 83% 29.92 in 6.2 mi North 6.9 mph - N/A   Mostly Cloudy
7:13 PM 62.6 °F 59.0 °F 88% 29.95 in 4.3 mi North 4.6 mph - N/A   Mostly Cloudy
7:25 PM 62.6 °F 60.8 °F 94% 29.95 in 3.7 mi NNE 3.5 mph - N/A   Mostly Cloudy
7:54 PM 62.6 °F 60.8 °F 94% 29.95 in - Variable 3.5 mph - N/A   Mostly Cloudy
8:00 PM 63 °F 60 °F 88% 29.95 in 3 mi 2.2 mph - -   Clear
8:25 PM 62.6 °F 60.8 °F 94% 29.95 in 3.1 mi Variable 2.3 mph - N/A   Mostly Cloudy
8:36 PM 62.6 °F 60.8 °F 94% 29.95 in - Variable 2.3 mph - N/A   Scattered Clouds
9:12 PM 60.8 °F 59.0 °F 94% 29.95 in - Variable 3.5 mph - N/A   Scattered Clouds
9:25 PM 60.8 °F 59.0 °F 94% 29.95 in - Variable 2.3 mph - N/A   Mostly Cloudy
9:49 PM 60.8 °F 59.0 °F 94% 29.95 in - NW 3.5 mph - N/A   Mostly Cloudy
10:04 PM 60.8 °F 59.0 °F 94% 29.95 in 2.2 mi NW 3.5 mph - N/A   Partly Cloudy
10:25 PM 60.8 °F 59.0 °F 94% 29.95 in - WNW 3.5 mph - N/A   Scattered Clouds
10:34 PM 60.8 °F 59.0 °F 94% 29.95 in - NW 4.6 mph - N/A   Mostly Cloudy
10:52 PM 60.8 °F 59.0 °F 94% 29.95 in - NW 5.8 mph - N/A   Mostly Cloudy
11:00 PM 61 °F 60 °F 93% 29.97 in 3 mi NW 4.5 mph - -   Mist
11:09 PM 60.8 °F 59.0 °F 94% 29.98 in 2.2 mi NW 3.5 mph - N/A   Mostly Cloudy
11:25 PM 60.8 °F 59.0 °F 94% 29.98 in - Variable 3.5 mph - N/A   Mostly Cloudy
11:34 PM 60.8 °F 59.0 °F 94% 29.98 in - WNW 4.6 mph - N/A   Mostly Cloudy
11:46 PM 62.6 °F 59.0 °F 88% 29.98 in - NW 4.6 mph - N/A   Mostly Cloudy
11:52 PM 60.8 °F 59.0 °F 94% 29.98 in - NNW 4.6 mph - N/A   Mostly Cloudy